Location: Ostrava
(49.8330°N, 18.2830°E)
Time: 06:52:27
(UTC+02:00)

Vanguard 2 Rocket - Visible Passes

Search period start: 24 July 2016 00:00
Search period end: 03 August 2016 00:00
Orbit: 555 x 3328 km, 32.9° (Epoch: 23 July)

Date Brightness Start Highest point End Pass type
(mag) Time Alt. Az. Time Alt. Az. Time Alt. Az.
24 Jul 9.9 01:51:37 13° SSE 01:51:48 13° SSE 01:56:04 10° SE visible
24 Jul 9.2 03:57:24 10° SW 04:05:23 21° S 04:11:01 10° SE visible
25 Jul 9.4 03:00:56 16° SSW 03:05:59 21° SSE 03:12:22 10° ESE visible
26 Jul 9.6 02:04:25 19° S 02:06:21 19° SSE 02:13:17 10° ESE visible
26 Jul 9.0 04:10:36 10° SW 04:20:00 26° S 04:26:15 10° SE visible
27 Jul 9.9 01:07:49 17° SSE 01:07:49 17° SSE 01:13:33 10° ESE visible
27 Jul 9.2 03:13:34 17° SSW 03:20:34 26° S 03:27:50 10° ESE visible
28 Jul 10.2 00:11:07 12° SE 00:11:07 12° SE 00:12:38 10° ESE visible
28 Jul 9.4 02:16:53 23° S 02:20:53 26° SSE 02:29:03 10° ESE visible
28 Jul 8.9 04:24:19 10° WSW 04:34:32 28° S 04:41:09 10° SE visible
29 Jul 9.7 01:20:04 24° SSE 01:20:58 24° SSE 01:29:52 10° ESE visible
29 Jul 9.1 03:25:48 15° SW 03:35:06 31° S 03:42:53 10° ESE visible
30 Jul 9.9 00:23:07 20° SE 00:23:07 20° SE 00:30:03 10° ESE visible
30 Jul 9.3 02:28:51 23° SSW 02:35:22 31° S 02:44:17 10° ESE visible
30 Jul 8.9 04:38:22 10° WSW 04:48:59 29° SSW 04:55:49 10° SE visible
30 Jul 10.2 23:25:59 14° SE 23:25:59 14° SE 23:29:15 10° ESE visible
31 Jul 9.5 01:31:42 28° S 01:35:22 30° SSE 01:45:20 10° ESE visible
31 Jul 9.0 03:37:24 11° WSW 03:49:34 33° S 03:57:41 10° SE visible
31 Jul10.522:28:33ESE22:28:33ESE22:10:56SSEvisible
01 Aug 9.7 00:34:12 27° SSE 00:35:09 28° SSE 00:45:56 10° ESE visible
01 Aug 9.2 02:39:52 19° SW 02:49:49 35° S 02:59:13 10° ESE visible
01 Aug 9.9 23:21:13 10° SSW 23:36:03 24° SE 23:45:54 10° ESE visible
02 Aug 9.4 01:41:36 24° SSW 01:49:44 35° S 02:00:24 10° ESE visible
02 Aug 9.1 03:50:54 10° WSW 04:03:55 34° SSW 04:12:16 10° SE visible
02 Aug 10.1 22:22:40 10° S 22:34:31 19° SE 22:44:57 10° ESE visible
